This is the latest recevied weather packets stored in our database for station/object LA6LOA. If no packets are shown the sender has not sent any weather packets the latest 10 day(s).
| Time | Temp. | Humidity | Pressure | Rain* | Wind** | Luminosity | Snow |
|---|---|---|---|---|---|---|---|
| 1777782077 | 0.56° C | 100% | 999.9 hPa | 0 mm | - | - | - |
| 1777781786 | 1.11° C | 100% | 999.9 hPa | 0 mm | - | - | - |
| 1777781477 | 1.67° C | 100% | 1000 hPa | 0 mm | - | - | - |
| 1777781177 | 3.33° C | 100% | 1000 hPa | 0 mm | - | - | - |
| 1777780907 | 0.56° C | 100% | 1000 hPa | 0 mm | - | - | - |
| 1777780577 | 0° C | 100% | 1000 hPa | 0 mm | - | - | - |
| 1777780277 | 0° C | 100% | 1000.2 hPa | 0 mm | - | - | - |
| 1777779977 | -0.56° C | 100% | 1000.3 hPa | 0 mm | - | - | - |
| 1777779677 | -0.56° C | 100% | 1000.3 hPa | 0 mm | - | - | - |
| 1777779377 | 0° C | 100% | 1000.2 hPa | 0 mm | - | - | - |
| 1777779077 | 2.22° C | 100% | 1000.2 hPa | 0 mm | - | - | - |
| 1777778777 | 2.22° C | 100% | 1000.1 hPa | 0 mm | - | - | - |
| 1777778477 | 5° C | 100% | 1000.1 hPa | 0 mm | - | - | - |
| 1777778177 | 4.44° C | 100% | 1000.2 hPa | 0 mm | - | - | - |
| 1777777877 | 4.44° C | 100% | 1000.2 hPa | 0 mm | - | - | - |
| 1777777577 | 1.67° C | 100% | 1000.2 hPa | 0 mm | - | - | - |
| 1777777277 | 0° C | 100% | 1000.2 hPa | 0 mm | - | - | - |
| 1777776977 | -0.56° C | 100% | 1000.1 hPa | 0 mm | - | - | - |
| 1777776677 | -0.56° C | 100% | 1000.2 hPa | 0 mm | - | - | - |
| 1777776378 | -1.11° C | 100% | 1000.3 hPa | 0 mm | - | - | - |
| 1777776077 | -1.67° C | 100% | 1000.3 hPa | 0 mm | - | - | - |
| 1777775777 | -1.67° C | 100% | 1000.4 hPa | 0 mm | - | - | - |
| 1777775478 | -1.67° C | 100% | 1000.4 hPa | 0 mm | - | - | - |
| 1777775177 | -1.67° C | 100% | 1000.5 hPa | 0 mm | - | - | - |
| 1777774878 | -1.67° C | 100% | 1000.5 hPa | 0 mm | - | - | - |
* Rain latest hour (hover to see other rain measurements)
** Current wind speed in m/s (hover to see current wind gust speed)